Location: *
(37.9500°N, 27.3666°E)
Time: 15:37:57
(UTC+00:00)

Cosmos 1908 - Pass Details

Date: 24 October 2021
Orbit: 509 x 528 km, 82.5° (Epoch: 05 December)

Event Time Altitude Azimuth Distance (km) Brightness Sun altitude
Rises 15:46:11 0° 197° (SSW) 2,646 7.2 -5.7°
Reaches altitude 10° 15:48:21 10° 202° (SSW) 1,760 6.4 -6.1°
Maximum altitude 15:52:08 52° 279° (W) 656 4.2 -6.8°
Drops below altitude 10° 15:55:55 10° 357° (N) 1,763 5.8 -7.6°
Sets 15:58:06 0° 2° (N) 2,653 6.7 -8.0°
